TimeCDT,TemperatureF,Dew PointF,Humidity,Sea Level PressureIn,VisibilityMPH,Wind Direction,Wind SpeedMPH,Gust SpeedMPH,PrecipitationIn,Events,Conditions,WindDirDegrees,DateUTC
12:15 AM,42.8,19.4,39,30.28,10.0,North,5.8,-,N/A,,Scattered Clouds,10,2013-10-25 05:15:00
12:35 AM,41.0,19.4,42,30.29,10.0,North,5.8,-,N/A,,Scattered Clouds,360,2013-10-25 05:35:00
12:55 AM,41.0,21.2,45,30.29,10.0,North,4.6,-,N/A,,Scattered Clouds,10,2013-10-25 05:55:00
1:15 AM,41.0,19.4,42,30.31,10.0,North,9.2,-,N/A,,Scattered Clouds,360,2013-10-25 06:15:00
1:35 AM,41.0,19.4,42,30.31,10.0,NNE,9.2,-,N/A,,Clear,30,2013-10-25 06:35:00
1:55 AM,39.2,14.0,36,30.32,10.0,NNE,6.9,-,N/A,,Clear,30,2013-10-25 06:55:00
2:15 AM,39.2,10.4,31,30.32,10.0,NNE,6.9,-,N/A,,Clear,20,2013-10-25 07:15:00
2:35 AM,39.2,8.6,28,30.32,10.0,NNE,9.2,-,N/A,,Clear,30,2013-10-25 07:35:00
2:55 AM,37.4,8.6,30,30.32,10.0,NNE,9.2,-,N/A,,Clear,20,2013-10-25 07:55:00
3:15 AM,37.4,8.6,30,30.33,10.0,NNE,9.2,-,N/A,,Clear,20,2013-10-25 08:15:00
3:35 AM,37.4,8.6,30,30.33,10.0,NNE,9.2,-,N/A,,Clear,20,2013-10-25 08:35:00
3:55 AM,37.4,10.4,33,30.33,10.0,NNE,8.1,-,N/A,,Scattered Clouds,20,2013-10-25 08:55:00
4:15 AM,35.6,12.2,38,30.34,10.0,NNE,9.2,-,N/A,,Scattered Clouds,20,2013-10-25 09:15:00
4:35 AM,35.6,14.0,41,30.35,10.0,NNE,4.6,-,N/A,,Clear,30,2013-10-25 09:35:00
4:55 AM,35.6,14.0,41,30.35,10.0,NE,3.5,-,N/A,,Clear,50,2013-10-25 09:55:00
5:15 AM,35.6,14.0,41,30.36,10.0,Calm,Calm,-,N/A,,Clear,0,2013-10-25 10:15:00
5:35 AM,35.6,14.0,41,30.37,10.0,North,3.5,-,N/A,,Clear,350,2013-10-25 10:35:00
5:55 AM,33.8,12.2,41,30.37,10.0,North,4.6,-,N/A,,Clear,360,2013-10-25 10:55:00
6:15 AM,33.8,14.0,44,30.38,10.0,North,3.5,-,N/A,,Clear,10,2013-10-25 11:15:00
6:35 AM,32.0,19.4,60,30.38,10.0,Calm,Calm,-,N/A,,Clear,0,2013-10-25 11:35:00
6:55 AM,33.8,12.2,41,30.39,10.0,North,3.5,-,N/A,,Clear,10,2013-10-25 11:55:00
7:15 AM,32.0,14.0,48,30.40,10.0,NNE,4.6,-,N/A,,Clear,30,2013-10-25 12:15:00
7:35 AM,33.8,14.0,44,30.41,10.0,NNE,5.8,-,N/A,,Clear,20,2013-10-25 12:35:00
7:55 AM,35.6,12.2,38,30.41,10.0,NNE,6.9,-,N/A,,Clear,20,2013-10-25 12:55:00
8:15 AM,37.4,8.6,30,30.42,10.0,NNE,6.9,-,N/A,,Clear,30,2013-10-25 13:15:00
8:35 AM,37.4,5.0,26,30.43,10.0,NNE,9.2,-,N/A,,Clear,20,2013-10-25 13:35:00
8:55 AM,39.2,3.2,22,30.43,10.0,NNE,8.1,-,N/A,,Clear,30,2013-10-25 13:55:00
9:15 AM,41.0,1.4,19,30.44,10.0,NE,10.4,16.1,N/A,,Clear,50,2013-10-25 14:15:00
9:35 AM,41.0,-0.4,18,30.44,10.0,NE,8.1,17.3,N/A,,Clear,40,2013-10-25 14:35:00
9:55 AM,42.8,-4.0,14,30.44,10.0,ENE,6.9,-,N/A,,Clear,60,2013-10-25 14:55:00
10:15 AM,44.6,-7.6,11,30.44,10.0,NE,6.9,-,N/A,,Clear,40,2013-10-25 15:15:00
10:35 AM,44.6,-5.8,12,30.44,10.0,NE,4.6,-,N/A,,Clear,50,2013-10-25 15:35:00
10:55 AM,46.4,-14.8,7,30.44,10.0,NNE,8.1,17.3,N/A,,Clear,30,2013-10-25 15:55:00
11:15 AM,46.4,-16.6,7,30.43,10.0,NNE,4.6,-,N/A,,Clear,20,2013-10-25 16:15:00
11:35 AM,46.4,-18.4,6,30.43,10.0,North,6.9,-,N/A,,Clear,360,2013-10-25 16:35:00
11:55 AM,46.4,-18.4,6,30.43,10.0,NNE,5.8,-,N/A,,Clear,30,2013-10-25 16:55:00
12:15 PM,48.2,-27.4,4,30.42,10.0,NNE,6.9,16.1,N/A,,Clear,20,2013-10-25 17:15:00
12:35 PM,48.2,-41.8,4,30.41,10.0,North,10.4,17.3,N/A,,Clear,350,2013-10-25 17:35:00
12:55 PM,50.0,-9999,N/A,30.40,10.0,North,6.9,-,N/A,,Clear,350,2013-10-25 17:55:00
1:15 PM,50.0,-9999,N/A,30.39,10.0,North,8.1,-,N/A,,Clear,360,2013-10-25 18:15:00
1:35 PM,50.0,-9999,N/A,30.38,10.0,North,9.2,-,N/A,,Clear,360,2013-10-25 18:35:00
1:55 PM,51.8,-9999,N/A,30.38,10.0,North,6.9,-,N/A,,Clear,10,2013-10-25 18:55:00
2:15 PM,51.8,-9999,N/A,30.37,10.0,North,9.2,-,N/A,,Clear,360,2013-10-25 19:15:00
2:35 PM,51.8,-9999,N/A,30.36,10.0,North,10.4,-,N/A,,Clear,350,2013-10-25 19:35:00
2:55 PM,51.8,-9999,N/A,30.36,10.0,NNE,5.8,16.1,N/A,,Clear,30,2013-10-25 19:55:00
3:15 PM,51.8,-9999,N/A,30.36,10.0,NE,3.5,-,N/A,,Clear,50,2013-10-25 20:15:00
3:35 PM,51.8,-9999,N/A,30.35,10.0,North,6.9,-,N/A,,Clear,350,2013-10-25 20:35:00
3:55 PM,51.8,-9999,N/A,30.35,10.0,North,8.1,-,N/A,,Clear,10,2013-10-25 20:55:00
4:15 PM,51.8,-9999,N/A,30.35,10.0,NW,9.2,-,N/A,,Clear,320,2013-10-25 21:15:00
4:35 PM,51.8,-9999,N/A,30.34,10.0,North,4.6,-,N/A,,Clear,10,2013-10-25 21:35:00
4:55 PM,50.0,-9999,N/A,30.34,10.0,NW,4.6,-,N/A,,Clear,310,2013-10-25 21:55:00
5:15 PM,50.0,-41.8,4,30.34,10.0,NNW,3.5,-,N/A,,Clear,330,2013-10-25 22:15:00
5:35 PM,50.0,-43.6,4,30.34,10.0,WNW,3.5,-,N/A,,Clear,300,2013-10-25 22:35:00
5:55 PM,48.2,-14.8,7,30.34,10.0,NW,3.5,-,N/A,,Clear,310,2013-10-25 22:55:00
6:15 PM,46.4,-7.6,10,30.34,10.0,Calm,Calm,-,N/A,,Clear,0,2013-10-25 23:15:00
6:35 PM,46.4,-5.8,11,30.34,10.0,NNW,4.6,-,N/A,,Clear,330,2013-10-25 23:35:00
6:55 PM,44.6,1.4,17,30.34,10.0,NNW,4.6,-,N/A,,Clear,330,2013-10-25 23:55:00
7:15 PM,42.8,3.2,19,30.34,10.0,NNW,4.6,-,N/A,,Clear,340,2013-10-26 00:15:00
7:35 PM,44.6,1.4,17,30.34,10.0,NNW,3.5,-,N/A,,Scattered Clouds,340,2013-10-26 00:35:00
7:55 PM,42.8,8.6,25,30.34,10.0,NNW,4.6,-,N/A,,Scattered Clouds,340,2013-10-26 00:55:00
8:15 PM,41.0,12.2,31,30.34,10.0,North,4.6,-,N/A,,Clear,350,2013-10-26 01:15:00
8:35 PM,41.0,10.4,29,30.34,10.0,North,5.8,-,N/A,,Clear,350,2013-10-26 01:35:00
8:55 PM,41.0,10.4,29,30.34,10.0,North,5.8,-,N/A,,Clear,350,2013-10-26 01:55:00
9:15 PM,37.4,14.0,38,30.34,10.0,Calm,Calm,-,N/A,,Clear,0,2013-10-26 02:15:00
9:35 PM,37.4,14.0,38,30.35,10.0,North,3.5,-,N/A,,Scattered Clouds,360,2013-10-26 02:35:00
9:55 PM,35.6,17.6,48,30.35,10.0,North,3.5,-,N/A,,Clear,10,2013-10-26 02:55:00
10:15 PM,35.6,17.6,48,30.34,10.0,Calm,Calm,-,N/A,,Clear,0,2013-10-26 03:15:00
10:35 PM,33.8,17.6,52,30.34,10.0,Calm,Calm,-,N/A,,Clear,0,2013-10-26 03:35:00
10:55 PM,33.8,19.4,56,30.34,10.0,NNE,3.5,-,N/A,,Clear,30,2013-10-26 03:55:00
11:15 PM,33.8,24.8,70,30.33,10.0,NE,3.5,-,N/A,,Clear,50,2013-10-26 04:15:00
11:35 PM,35.6,24.8,65,30.33,10.0,Calm,Calm,-,N/A,,Clear,0,2013-10-26 04:35:00
11:55 PM,33.8,19.4,56,30.32,10.0,Calm,Calm,-,N/A,,Clear,0,2013-10-26 04:55:00